Tracking 25995 objects as of 19-Aug-2022
HD Live streaming from Space Station
objects crossing your sky now

YAOGAN-31 K

Track YAOGAN-31 K now!
10-day predictions


NORAD ID: 47854
Int'l Code: 2021-020A
Perigee: 1,060.4 km
Apogee: 1,133.5 km
Inclination: 63.4 °
Period: 107.0 minutes
Semi major axis: 7467 km
RCS: Unknown
Launch date: March 13, 2021
Source: People's Republic of China (PRC)
Launch site: Jiuquan Satellite Launch Center, China (JSC)
aabbcc
Your satellite tracking list
Your tracking list is empty




NASA's NSSDC Master Catalog

Two Line Element Set (TLE):
1 47854U 21020A   22230.70229212 -.00000031  00000-0  10000-3 0  9996
2 47854  63.4083 249.5700 0048939 351.2146   8.8019 13.45232253 70436
Source of the keplerian elements: AFSPC